EW2514 Weather Reports


Display with metric or nautical units.
time (UTC)temp
F
wind
direction
speed
MPH
gust
MPH
rain 1hr
in
rain 24hr
in
rain mn
in
humidity
%
barometer
mb
20260906161540 95 8 2.0 5.0 0.00 0.00 0.00 48 1013.6
20260906160003 92 264 2.0 3.0 0.00 0.00 0.00 52 1013.6
20260906154528 91 359 2.0 4.0 0.00 0.00 0.00 55 1013.8
20260906153056 89 359 1.0 4.0 0.00 0.00 0.00 57 1013.9
20260906151521 88 359 1.0 3.0 0.00 0.00 0.00 58 1013.7
20260906150051 86 359 1.0 3.0 0.00 0.00 0.00 61 1013.7
20260906144511 84 359 0.0 3.0 0.00 0.00 0.00 67 1013.6
20260906143041 82 359 0.0 2.0 0.00 0.00 0.00 69 1013.7
20260906141607 81 359 2.0 4.0 0.00 0.00 0.00 71 1013.7
20260906140035 79 359 0.0 2.0 0.00 0.00 0.00 74 1014.0
20260906134600 77 359 0.0 2.0 0.00 0.00 0.00 77 1013.9
20260906133019 75 359 2.0 5.0 0.00 0.00 0.00 80 1014.0
20260906131549 74 359 0.0 3.0 0.00 0.00 0.00 82 1013.6
20260906130011 73 359 1.0 3.0 0.00 0.00 0.00 83 1013.4
20260906124543 72 346 0.0 1.0 0.00 0.00 0.00 85 1013.2
20260906123002 72 301 0.0 0.0 0.00 0.00 0.00 86 1013.2
20260906121531 72 299 0.0 0.0 0.00 0.00 0.00 86 1013.2
20260906114526 72 301 0.0 0.0 0.00 0.00 0.00 85 1012.8
20260906113057 72 359 0.0 0.0 0.00 0.00 0.00 85 1012.7
20260906111529 72 297 0.0 0.0 0.00 0.00 0.00 84 1012.8
20260906110052 73 299 0.0 0.0 0.00 0.00 0.00 84 1012.6
20260906104516 73 307 0.0 0.0 0.00 0.00 0.00 83 1012.5
20260906103049 73 310 0.0 0.0 0.00 0.00 0.00 83 1012.5
20260906101515 74 100 0.0 0.0 0.00 0.00 0.00 81 1012.5
20260906100040 74 359 0.0 0.0 0.00 0.00 0.00 80 1012.4
20260906094507 75 359 0.0 0.0 0.00 0.00 0.00 79 1012.4
20260906093041 75 359 0.0 1.0 0.00 0.00 0.00 78 1012.3
20260906091505 75 359 1.0 3.0 0.00 0.00 0.00 79 1012.3
20260906090034 75 359 0.0 3.0 0.00 0.00 0.00 80 1012.1
20260906084605 75 359 0.0 2.0 0.00 0.00 0.00 80 1012.2
20260906083033 76 308 1.0 2.0 0.00 0.00 0.00 79 1012.1
20260906081553 76 307 0.0 1.0 0.00 0.00 0.00 78 1012.0
20260906080027 76 307 0.0 1.0 0.00 0.00 0.00 76 1012.1
20260906074548 76 307 0.0 0.0 0.00 0.00 0.00 74 1012.3
20260906073007 77 308 0.0 0.0 0.00 0.00 0.00 73 1012.1
20260906071536 77 307 0.0 0.0 0.00 0.00 0.00 72 1012.1
20260906070003 78 307 0.0 0.0 0.00 0.00 0.00 71 1012.2
20260906064530 78 307 0.0 0.0 0.00 0.00 0.00 71 1012.4
20260906063058 78 307 0.0 1.0 0.00 0.00 0.00 69 1012.1
20260906061518 79 359 0.0 1.0 0.00 0.00 0.00 69 1012.1
20260906060046 80 359 0.0 0.0 0.00 0.00 0.00 67 1012.0
20260906054512 80 359 0.0 0.0 0.00 0.00 0.00 65 1012.2
20260906053053 81 359 0.0 0.0 0.00 0.00 0.00 64 1012.0
20260906051507 81 359 0.0 2.0 0.00 0.00 0.00 64 1012.0
20260906050046 81 359 0.0 1.0 0.00 0.00 0.00 64 1012.0
20260906044502 82 359 0.0 2.0 0.00 0.00 0.00 63 1011.9
20260906043032 82 272 0.0 2.0 0.00 0.00 0.00 62 1011.9
20260906041601 82 42 0.0 2.0 0.00 0.00 0.00 61 1011.6
20260906040028 84 359 1.0 2.0 0.00 0.00 0.00 60 1011.8
20260906034606 84 359 1.0 2.0 0.00 0.00 0.00 59 1011.7
20260906033027 84 359 1.0 3.0 0.00 0.00 0.00 58 1011.7
20260906031554 85 124 1.0 3.0 0.00 0.00 0.00 57 1011.6
20260906030023 86 359 0.0 1.0 0.00 0.00 0.00 56 1011.4
20260906024551 87 359 0.0 2.0 0.00 0.00 0.00 54 1011.3
20260906023015 87 359 0.0 3.0 0.00 0.00 0.00 52 1011.2
20260906021546 87 359 1.0 3.0 0.00 0.00 0.00 52 1011.0
20260906020012 88 359 1.0 3.0 0.00 0.00 0.00 51 1010.6
20260906014541 89 359 0.0 2.0 0.00 0.00 0.00 50 1010.5
20260906013005 92 359 0.0 2.0 0.00 0.00 0.00 46 1010.3
20260906011535 94 359 0.0 1.0 0.00 0.00 0.00 41 1010.1
20260906010058 94 359 1.0 2.0 0.00 0.00 0.00 40 1010.1
20260906004521 96 359 0.0 1.0 0.00 0.00 0.00 40 1009.9
20260906003049 97 359 0.0 3.0 0.00 0.00 0.00 39 1009.9
20260906001518 99 359 0.0 2.0 0.00 0.00 0.00 37 1009.9
20260906000053 100 359 0.0 1.0 0.00 0.00 0.00 34 1009.8
20260905234508 101 359 0.0 0.0 0.00 0.00 0.00 36 1009.8
20260905233040 101 359 0.0 1.0 0.00 0.00 0.00 35 1010.0
20260905231502 101 359 0.0 3.0 0.00 0.00 0.00 33 1010.0
20260905230030 101 21 0.0 3.0 0.00 0.00 0.00 34 1009.9
20260905224556 102 64 0.0 2.0 0.00 0.00 0.00 33 1009.7
20260905223020 102 81 2.0 5.0 0.00 0.00 0.00 33 1009.6
20260905221548 102 137 1.0 3.0 0.00 0.00 0.00 33 1009.7
20260905220013 103 172 1.0 5.0 0.00 0.00 0.00 32 1009.9
20260905214538 103 29 1.0 4.0 0.00 0.00 0.00 32 1010.1
20260905213005 102 101 1.0 7.0 0.00 0.00 0.00 33 1010.1
20260905211534 103 72 2.0 4.0 0.00 0.00 0.00 33 1010.4
20260905210118 102 201 3.0 7.0 0.00 0.00 0.00 33 1010.4
20260905204534 102 216 2.0 8.0 0.00 0.00 0.00 31 1010.8
20260905203051 102 43 2.0 5.0 0.00 0.00 0.00 33 1011.0
20260905201517 102 359 0.0 9.0 0.00 0.00 0.00 36 1011.1
20260905200044 102 316 2.0 4.0 0.00 0.00 0.00 35 1011.6
20260905194508 102 15 3.0 8.0 0.00 0.00 0.00 36 1011.9
20260905193036 102 359 3.0 9.0 0.00 0.00 0.00 36 1011.9
20260905191502 101 359 3.0 8.0 0.00 0.00 0.00 37 1012.0
20260905190028 100 217 4.0 7.0 0.00 0.00 0.00 39 1012.3
20260905184614 98 0.0 6.0 0.00 0.00 0.00 40 1012.6
20260905183038 101 359 3.0 9.0 0.00 0.00 0.00 38 1012.8
20260905181557 102 236 2.0 5.0 0.00 0.00 0.00 38 1012.9
20260905180016 100 172 0.0 6.0 0.00 0.00 0.00 40 1013.1
20260905174541 98 295 2.0 6.0 0.00 0.00 0.00 41 1013.4
20260905173006 99 359 1.0 9.0 0.00 0.00 0.00 42 1013.4
20260905171532 98 238 2.0 5.0 0.00 0.00 0.00 43 1013.7
20260905170100 98 235 3.0 7.0 0.00 0.00 0.00 43 1013.8
20260905164526 97 249 1.0 4.0 0.00 0.00 0.00 45 1014.0
20260905163052 95 133 1.0 4.0 0.00 0.00 0.00 48 1014.3